Location: Olsztyn
(53.7767°N, 20.4765°E)
Time: 08:55:15
(UTC+01:00)

Transit 4A - Pass Details

Date: 01 October 2022
Orbit: 871 x 972 km, 66.8° (Epoch: 06 December)

Event Time Altitude Azimuth Distance (km) Brightness Sun altitude
Exits shadow 00:14:22 22° 39° (NE) 1,889 9.8 -39.2°
Drops below altitude 10° 00:16:17 10° 41° (NE) 2,582 10.6 -39.2°
Sets 00:18:46 0° 42° (NE) 3,513 11.4 -39.3°
